Location: Unspecified
(0.0000°N, 0.0000°E)
Time: 18:59:01
(UTC+00:00)

Hubble Space Telescope - Pass Details

Date: 19 February 2024
Orbit: 515 x 519 km, 28.5° (Epoch: 02 March)

Event Time Altitude Azimuth Distance (km) Brightness Sun altitude
Rises 19:44:49 0° 279° (W) 2,622 5.5 -22.3°
Reaches altitude 10° 19:48:36 10° 315° (NW) 1,733 3.7 -23.2°
Maximum altitude 19:49:50 11° 333° (NNW) 1,659 3.4 -23.5°
Enters shadow 19:50:38 11° 345° (NNW) 1,691 3.3 -23.7°
